Погода Молчаново

Погода Молчаново : погода сейчас, прогноз погоды и архив. Всё, что Вы хотите узнать о погоде Молчаново!

Поиск расширенной информации на нашем сайте:

Другие новости

Новости СМИ2

Главная страница сайта

Новости сайта

03.07.2017

Напоминаем, что на нашем специализированном сайте Метеоцентр.Азия вы можете получить высокодетализированные автоматические прогнозы погоды по пунктам России, СНГ и мира в авиационном формате (включающие направление и скорость ветра, видимость, явления погоды, количество и форму облачности, нижнюю и верхнюю границу облачности).


Погода Молчаново - сегодня

Время (UTC), дата Ветер
(°,м/с) 
Видим.   Явления Облачность Т
(°С)
Тd
(°С)
f(%) Тe
(°С)
Pmin
(гПа)
dP
(гПа)
Po
(мм)
O2
(г/м3)
Тmin Tmax R s Состояние
почвы
06 16.08.17 220 (ЮЗ) 20000 м    10/5 600 м верхняя 
[Cu Sc|Ci fib]
+19.3 +8.6 50 +20  1018.8  -1  754  282           
09 16.08.17 240 (ЮЗ) 20000 м    10/4 300 м кучево-дожд., средняя, верхняя 
[Cb calv|Ac trans|Ci fib]
+19.9 +8.9 49 +21  1017.7  -1.1  753  281           
12 16.08.17 210 (ЮЗ) 20000 м    8/1 600 м средняя, верхняя 
[Sc|Ac trans|Ci fib]
+19.1 +7.1 46 +21  1017.2  -0.5  753  282    +21.4       
15 16.08.17 тихо ()   20000 м    10/0 средняя, верхняя 
[Ac trans|Ci fib]
+15.3 +12 81 +19  1017.4  0.1  753  285           
18 16.08.17 200 (Ю) 20000 м    3/0 верхняя 
[Ci fib]
+14.2 +9.8 75 +16  1016.6  -0.9  752  286           
21 16.08.17 210 (ЮЗ) 20000 м    8/0 средняя, верхняя 
[Ac trans|Ci fib]
+14.3 +10.3 77 +16  1015.8  -0.8  752  286           
00 17.08.17 210 (ЮЗ) 20000 м    10/0 средняя 
[Ac trans]
+14 +10.5 79 +16  1015  -0.8  751  286  +13.9        сухая 
03 17.08.17 190 (Ю) 20000 м    10/0 средняя, верхняя 
[Ac trans|Ci fib]
+16.8 +12.4 75 +22  1014.3  -0.5  751  283           
06 17.08.17 210 (ЮЗ) 20000 м    10/6 300 м кучево-дожд., средняя 
[Cb calv|Ac As]
+19.4 +14.4 73 +28  1013.5  -0.6  750  279           
09 17.08.17 160 (Ю) 20000 м  в посл. час ливневой дождь{гроза}  10/3 300 м кучево-дожд., средняя, верхняя 
[Cb calv|Ac trans|Ci fib]
+15.8 +15 95 +26  1013.9  0.1  750  283           
12 17.08.17 220 (ЮЗ) 20000 м  {гроза, ливн. осадки}  10/3 600 м средняя, верхняя 
[Sc|Ac trans|Ci fib]
+17.8 +15.5 86 +29  1013.4  -0.4  750  280    +19.9  14     
15 17.08.17 260 (З) 20000 м  слаб. ливневой дождь  10/8 300 м кучево-дожд., средняя 
[Cb calv|Ac As]
+16.4 +15 91 +26  1014.3  0.9  751  282           
18 17.08.17 280 (З) 10 км  слаб. ливневой дождь  10/4 300 м кучево-дожд., средняя 
[Cb calv|Ac As]
+15.2 +14.3 94 +23  1014.3  -0.1  751  284           
21 17.08.17 300 (СЗ) 20000 м  {ливн. осадки}  10/3 300 м кучево-дожд., средняя 
[Cb calv|Ac As]
+13.6 +12.7 94 +20  1014.7  0.3  751  286           
00 18.08.17 280 (З) 20000 м  {ливн. осадки}  10/10 100 м 
[St]
+12.6 +11.8 95 +18  1015.2  0.5  751  287  +12.6    0.5    влажная 
03 18.08.17 330 (СЗ) 20000 м  {морось}  10/8 600 м верхняя 
[Sc|Ci fib]
+13.8 +11.7 87 +18  1015.6  0.4  752  286  +12.4         
06 18.08.17 300 (СЗ) 20000 м  {морось}  10/10 600 м 
[Sc]
+14.5 +11.2 81 +18  1016.2  0.5  752  286           
09 18.08.17 320 (СЗ) 20000 м    10/10 600 м 
[Sc]
+14.3 +11.4 83 +19  1016.3  0.2  752  286           
12 18.08.17 330 (СЗ) 20000 м    10/6 600 м средняя, верхняя 
[Sc|Ac trans|Ci fib]
+15 +11.6 80 +19  1016.1  -0.1  752  285    +15.2  0.0     
15 18.08.17 310 (СЗ) 20000 м    10/5 600 м средняя 
[Sc|Ac As]
+13.9 +11.3 84 +18  1016.3  0.1  752  286           
18 18.08.17 280 (З) 20000 м    10/10 600 м 
[Sc]
+12.7 +9.6 81 +15  1016.1  -0.2  752  288           
21 18.08.17 280 (З) 20000 м    10/4 600 м средняя 
[Sc|Ac As]
+11.6 +9.2 85 +13  1015.8  -0.4  752  289           
00 19.08.17 290 (З) 20000 м    10/3 600 м средняя 
[Sc|Ac As]
+11.3 +9 86 +12  1016  0.2  752  289  +11.2        влажная 
03 19.08.17 290 (З) 20000 м    8/3 600 м средняя 
[Sc|Ac trans]
+13 +8.7 75 +14  1016.6  0.7  752  288  +11.1         
06 19.08.17 320 (СЗ) 20000 м    8/3 600 м средняя, верхняя 
[Sc|Ac trans|Ci fib]
+16 +5.6 50 +17  1016.6  0.1  752  286           
Время (UTC), дата Ветер
(°,м/с) 
Видим.   Явления Облачность Т
(°С)
Тd
(°С)
f(%) Тe
(°С)
Pmin
(гПа)
dP
(гПа)
Po
(мм)
O2
(г/м3)
Тmin Tmax R s Состояние
почвы

Для получения пояснительной информации подведите курсор к названию столбца.

ПОГОДА Молчаново - архив

Всё, что Вы хотите узнать о погоде Молчаново - удобно и подробно!

Выберите нужную дату (начиная с 1 января 2015* года) и нажмите кнопку "Найти".
Будут отображены архивные сводки погоды по пункту Молчаново, начиная с указанной даты.


Отображать данные в формате CSV (для использования в таблицах Excel)


Внимание! Наш архив погоды предназначен исключительно для личного некоммерческого использования в познавательных целях. Если Вам необходимы официальные справки о состоянии погоды (для производственных, юридических, коммерческих и т.п. целей), обращайтесь в органы Росгидромета.

*Примечание: данная дата относится к архиву по метеостанциям СССР (Россия, СНГ, Балтия).
Архив по метеостанциям Зарубежной Европы и Азии (кроме Китая) хранится 10 дней, по другим регионам земного шара (Китай, Африка, Америка, Австралия, Океания) - 1 день.

Молчаново - район местоположения метеостанции


Название, широта, долгота, высота метеостанции:
Молчаново 57.6°ш. 83.8°д. 114 м над ур. моря [Российская Федерация]

Дополнительная информация

В oтличие oт бoльшинства пoгoдных сайтoв мы публикуем пoдрoбную метеoинфoрмацию в детальнoм прoфессиoнальнoм фoрмате.

Характеристики температуры и влажнoсти вoздуха измеряются на высoте 2 м в тени вдали oт зданий и деревьев.
Скoрoсть ветра измеряется на высoте 10 м (на урoвне рoста челoвека скoрoсть ветра ниже в 1.5-2 раза). Если метеoстанция нахoдится в гoрoде или в лесу, тo скoрoсть ветра занижена на 2-4 м/с пo сравнению с oткрытым местoм. Скoрoсть ветра над акватoриями крупных рек и oзёр, а также на вершинах хoлмoв на 2-5 м/с выше, чем в oбычных услoвиях.
Атмoсфернoе давление в разных тoчках местнoсти мoжет значительнo oтличаться oт давления на метеoстанции, в зависимoсти oт услoвий рельефа (при пoдъёме на 10 м давление пoнижается примернo на 1 мм рт.ст.).